Time,TemperatureF,DewpointF,PressureIn,WindDirection,WindDirectionDegrees,WindSpeedMPH,WindSpeedGustMPH,Humidity,HourlyPrecipIn,Conditions,Clouds,dailyrainin,SolarRadiationWatts/m^2,SoftwareType,DateUTC
2013-10-10 00:13:00,39.0,27.0,-100.00,SW,230,5.0,26.0,63,0.00,,,0.00,0.000000,,2013-10-10 06:13:00,
2013-10-10 00:22:00,39.0,27.0,-100.00,SW,230,5.0,26.0,63,0.00,,,0.00,0.000000,,2013-10-10 06:22:00,
2013-10-10 00:33:00,39.0,27.0,-100.00,SW,230,5.0,26.0,63,0.00,,,0.00,0.000000,,2013-10-10 06:33:00,
2013-10-10 00:42:00,39.0,27.0,-100.00,SW,230,5.0,26.0,63,0.00,,,0.00,0.000000,,2013-10-10 06:42:00,
2013-10-10 01:11:00,39.0,27.0,-100.00,South,188,6.0,12.0,62,0.00,,,0.00,0.000000,,2013-10-10 07:11:00,
2013-10-10 01:21:00,39.0,27.0,-100.00,South,188,6.0,12.0,62,0.00,,,0.00,0.000000,,2013-10-10 07:21:00,
2013-10-10 01:32:00,39.0,27.0,-100.00,South,188,6.0,12.0,62,0.00,,,0.00,0.000000,,2013-10-10 07:32:00,
2013-10-10 01:42:00,39.0,27.0,-100.00,South,188,6.0,12.0,62,0.00,,,0.00,0.000000,,2013-10-10 07:42:00,
2013-10-10 02:11:00,40.0,31.0,-100.00,SE,141,7.0,18.0,70,0.00,,,0.00,0.000000,,2013-10-10 08:11:00,
2013-10-10 02:22:00,40.0,31.0,-100.00,SE,141,7.0,18.0,70,0.00,,,0.00,0.000000,,2013-10-10 08:22:00,
2013-10-10 02:32:00,40.0,31.0,-100.00,SE,141,7.0,18.0,70,0.00,,,0.00,0.000000,,2013-10-10 08:32:00,
2013-10-10 02:42:00,40.0,31.0,-100.00,SE,141,7.0,18.0,70,0.00,,,0.00,0.000000,,2013-10-10 08:42:00,
2013-10-10 03:11:00,41.0,27.0,-100.00,SSE,168,10.0,17.0,56,0.00,,,0.00,0.000000,,2013-10-10 09:11:00,
2013-10-10 03:21:00,41.0,27.0,-100.00,SSE,168,10.0,17.0,56,0.00,,,0.00,0.000000,,2013-10-10 09:21:00,
2013-10-10 03:33:00,41.0,27.0,-100.00,SSE,168,10.0,17.0,56,0.00,,,0.00,0.000000,,2013-10-10 09:33:00,
2013-10-10 03:42:00,41.0,27.0,-100.00,SSE,168,10.0,17.0,56,0.00,,,0.00,0.000000,,2013-10-10 09:42:00,
2013-10-10 04:12:00,41.0,29.0,-100.00,SW,226,21.0,55.0,63,0.00,,,0.00,0.000000,,2013-10-10 10:12:00,
2013-10-10 04:23:00,41.0,29.0,-100.00,SW,226,21.0,55.0,63,0.00,,,0.00,0.000000,,2013-10-10 10:23:00,
2013-10-10 04:32:00,41.0,29.0,-100.00,SW,226,21.0,55.0,63,0.00,,,0.00,0.000000,,2013-10-10 10:32:00,
2013-10-10 04:42:00,41.0,29.0,-100.00,SW,226,21.0,55.0,63,0.00,,,0.00,0.000000,,2013-10-10 10:42:00,
2013-10-10 05:12:00,40.0,32.0,-100.00,South,187,10.0,56.0,72,0.00,,,0.00,0.000000,,2013-10-10 11:12:00,
2013-10-10 05:22:00,40.0,32.0,-100.00,South,187,10.0,56.0,72,0.00,,,0.00,0.000000,,2013-10-10 11:22:00,
2013-10-10 05:33:00,40.0,32.0,-100.00,South,187,10.0,56.0,72,0.00,,,0.00,0.000000,,2013-10-10 11:33:00,
2013-10-10 05:42:00,40.0,32.0,-100.00,South,187,10.0,56.0,72,0.00,,,0.00,0.000000,,2013-10-10 11:42:00,
2013-10-10 08:11:00,41.0,27.0,-100.00,SSW,208,24.0,39.0,56,-99.99,,,0.00,10.000000,,2013-10-10 14:11:00,
2013-10-10 08:21:00,41.0,27.0,-100.00,SSW,208,24.0,39.0,56,-99.99,,,0.00,10.000000,,2013-10-10 14:21:00,
2013-10-10 08:32:00,41.0,27.0,-100.00,SSW,208,24.0,39.0,56,-99.99,,,0.00,10.000000,,2013-10-10 14:32:00,
2013-10-10 08:42:00,41.0,27.0,-100.00,SSW,208,24.0,39.0,56,-99.99,,,0.00,10.000000,,2013-10-10 14:42:00,
2013-10-10 09:11:00,40.0,27.0,-100.00,SSW,207,36.0,55.0,59,0.00,,,0.00,49.000000,,2013-10-10 15:11:00,
2013-10-10 09:22:00,40.0,27.0,-100.00,SSW,207,36.0,55.0,59,0.00,,,0.00,49.000000,,2013-10-10 15:22:00,
2013-10-10 09:33:00,40.0,27.0,-100.00,SSW,207,36.0,55.0,59,0.00,,,0.00,49.000000,,2013-10-10 15:33:00,
2013-10-10 09:43:00,40.0,27.0,-100.00,SSW,207,36.0,55.0,59,0.00,,,0.00,49.000000,,2013-10-10 15:43:00,
2013-10-10 10:13:00,41.0,29.0,-100.00,South,190,31.0,57.0,62,0.00,,,0.00,102.000000,,2013-10-10 16:13:00,
2013-10-10 10:23:00,41.0,29.0,-100.00,South,190,31.0,57.0,62,0.00,,,0.00,102.000000,,2013-10-10 16:23:00,
2013-10-10 10:33:00,41.0,29.0,-100.00,South,190,31.0,57.0,62,0.00,,,0.00,102.000000,,2013-10-10 16:33:00,
2013-10-10 10:42:00,41.0,29.0,-100.00,South,190,31.0,57.0,62,0.00,,,0.00,102.000000,,2013-10-10 16:42:00,
2013-10-10 11:23:00,40.0,27.0,-100.00,SSW,196,30.0,52.0,60,0.00,,,0.00,232.000000,,2013-10-10 17:23:00,
2013-10-10 11:32:00,40.0,27.0,-100.00,SSW,196,30.0,52.0,60,0.00,,,0.00,232.000000,,2013-10-10 17:32:00,
2013-10-10 11:42:00,40.0,27.0,-100.00,SSW,196,30.0,52.0,60,0.00,,,0.00,232.000000,,2013-10-10 17:42:00,
2013-10-10 12:12:00,39.0,31.0,-100.00,SW,227,27.0,41.0,72,0.00,,,-99.99,402.000000,,2013-10-10 18:12:00,
2013-10-10 12:21:00,39.0,31.0,-100.00,SW,227,27.0,41.0,72,0.00,,,-99.99,402.000000,,2013-10-10 18:21:00,
2013-10-10 12:32:00,39.0,31.0,-100.00,SW,227,27.0,41.0,72,0.00,,,-99.99,402.000000,,2013-10-10 18:32:00,
2013-10-10 12:42:00,39.0,31.0,-100.00,SW,227,27.0,41.0,72,0.00,,,-99.99,402.000000,,2013-10-10 18:42:00,
2013-10-10 13:11:00,32.0,31.0,-100.00,WNW,287,12.0,39.0,97,0.01,,,0.01,79.000000,,2013-10-10 19:11:00,
2013-10-10 13:21:00,32.0,31.0,-100.00,WNW,287,12.0,39.0,97,0.01,,,0.01,79.000000,,2013-10-10 19:21:00,
2013-10-10 13:32:00,32.0,31.0,-100.00,WNW,287,12.0,39.0,97,0.01,,,0.01,79.000000,,2013-10-10 19:32:00,
2013-10-10 13:42:00,32.0,31.0,-100.00,WNW,287,12.0,39.0,97,0.01,,,0.01,79.000000,,2013-10-10 19:42:00,
2013-10-10 14:12:00,33.0,32.0,-100.00,NNW,337,1.0,21.0,97,0.00,,,0.01,65.000000,,2013-10-10 20:12:00,
2013-10-10 14:22:00,33.0,32.0,-100.00,NNW,337,1.0,21.0,97,0.00,,,0.01,65.000000,,2013-10-10 20:22:00,
2013-10-10 14:32:00,33.0,32.0,-100.00,NNW,337,1.0,21.0,97,0.00,,,0.01,65.000000,,2013-10-10 20:32:00,
2013-10-10 14:42:00,33.0,32.0,-100.00,NNW,337,1.0,21.0,97,0.00,,,0.01,65.000000,,2013-10-10 20:42:00,
2013-10-10 15:21:00,33.0,32.0,-100.00,NNE,29,0.0,8.0,97,0.00,,,0.01,64.000000,,2013-10-10 21:21:00,
2013-10-10 15:34:00,33.0,32.0,-100.00,NNE,29,0.0,8.0,97,0.00,,,0.01,64.000000,,2013-10-10 21:34:00,
2013-10-10 15:43:00,33.0,32.0,-100.00,NNE,29,0.0,8.0,97,0.00,,,0.01,64.000000,,2013-10-10 21:43:00,
2013-10-10 16:13:00,33.0,32.0,-100.00,WSW,253,7.0,16.0,97,0.00,,,0.01,47.000000,,2013-10-10 22:13:00,
2013-10-10 16:24:00,33.0,32.0,-100.00,WSW,253,7.0,16.0,97,0.00,,,0.01,47.000000,,2013-10-10 22:24:00,
2013-10-10 16:33:00,33.0,32.0,-100.00,WSW,253,7.0,16.0,97,0.00,,,0.01,47.000000,,2013-10-10 22:33:00,
2013-10-10 16:43:00,33.0,32.0,-100.00,WSW,253,7.0,16.0,97,0.00,,,0.01,47.000000,,2013-10-10 22:43:00,
2013-10-10 17:12:00,31.0,30.0,-100.00,ENE,61,5.0,9.0,97,0.00,,,0.01,31.000000,,2013-10-10 23:12:00,
2013-10-10 17:23:00,31.0,30.0,-100.00,ENE,61,5.0,9.0,97,0.00,,,0.01,31.000000,,2013-10-10 23:23:00,
2013-10-10 17:33:00,31.0,30.0,-100.00,ENE,61,5.0,9.0,97,0.00,,,0.01,31.000000,,2013-10-10 23:33:00,
2013-10-10 17:43:00,31.0,30.0,-100.00,ENE,61,5.0,9.0,97,0.00,,,0.01,31.000000,,2013-10-10 23:43:00,
2013-10-10 18:11:00,30.0,29.0,-100.00,SSW,213,3.0,9.0,97,0.01,,,0.02,9.000000,,2013-10-11 00:11:00,
2013-10-10 18:21:00,30.0,29.0,-100.00,SSW,213,3.0,9.0,97,0.01,,,0.02,9.000000,,2013-10-11 00:21:00,
2013-10-10 18:32:00,30.0,29.0,-100.00,SSW,213,3.0,9.0,97,0.01,,,0.02,9.000000,,2013-10-11 00:32:00,
2013-10-10 18:42:00,30.0,29.0,-100.00,SSW,213,3.0,9.0,97,0.01,,,0.02,9.000000,,2013-10-11 00:42:00,
2013-10-10 19:11:00,30.0,29.0,-100.00,SW,230,9.0,11.0,97,0.01,,,0.03,3.000000,,2013-10-11 01:11:00,
2013-10-10 19:21:00,30.0,29.0,-100.00,SW,230,9.0,11.0,97,0.01,,,0.03,3.000000,,2013-10-11 01:21:00,
2013-10-10 19:32:00,30.0,29.0,-100.00,SW,230,9.0,11.0,97,0.01,,,0.03,3.000000,,2013-10-11 01:32:00,
2013-10-10 19:42:00,30.0,29.0,-100.00,SW,230,9.0,11.0,97,0.01,,,0.03,3.000000,,2013-10-11 01:42:00,
2013-10-10 20:12:00,29.0,28.0,-100.00,West,275,11.0,20.0,97,0.00,,,-99.99,0.000000,,2013-10-11 02:12:00,
2013-10-10 20:22:00,29.0,28.0,-100.00,West,275,11.0,20.0,97,0.00,,,-99.99,0.000000,,2013-10-11 02:22:00,
2013-10-10 20:32:00,29.0,28.0,-100.00,West,275,11.0,20.0,97,0.00,,,-99.99,0.000000,,2013-10-11 02:32:00,
2013-10-10 20:42:00,29.0,28.0,-100.00,West,275,11.0,20.0,97,0.00,,,-99.99,0.000000,,2013-10-11 02:42:00,
2013-10-10 21:11:00,27.0,26.0,-100.00,WNW,301,7.0,14.0,95,0.00,,,0.03,0.000000,,2013-10-11 03:11:00,
2013-10-10 21:23:00,27.0,26.0,-100.00,WNW,301,7.0,14.0,95,0.00,,,0.03,0.000000,,2013-10-11 03:23:00,
2013-10-10 21:34:00,27.0,26.0,-100.00,WNW,301,7.0,14.0,95,0.00,,,0.03,0.000000,,2013-10-11 03:34:00,
2013-10-10 21:44:00,27.0,26.0,-100.00,WNW,301,7.0,14.0,95,0.00,,,0.03,0.000000,,2013-10-11 03:44:00,
2013-10-10 22:13:00,28.0,25.0,-100.00,West,270,14.0,21.0,89,0.00,,,0.03,0.000000,,2013-10-11 04:13:00,
2013-10-10 22:24:00,28.0,25.0,-100.00,West,270,14.0,21.0,89,0.00,,,0.03,0.000000,,2013-10-11 04:24:00,
2013-10-10 22:34:00,28.0,25.0,-100.00,West,270,14.0,21.0,89,0.00,,,0.03,0.000000,,2013-10-11 04:34:00,
2013-10-10 22:43:00,28.0,25.0,-100.00,West,270,14.0,21.0,89,0.00,,,0.03,0.000000,,2013-10-11 04:43:00,
2013-10-10 23:13:00,29.0,23.0,-100.00,WSW,254,18.0,26.0,78,0.00,,,0.03,0.000000,,2013-10-11 05:13:00,
2013-10-10 23:23:00,29.0,23.0,-100.00,WSW,254,18.0,26.0,78,0.00,,,0.03,0.000000,,2013-10-11 05:23:00,
2013-10-10 23:34:00,29.0,23.0,-100.00,WSW,254,18.0,26.0,78,0.00,,,0.03,0.000000,,2013-10-11 05:34:00,
2013-10-10 23:43:00,29.0,23.0,-100.00,WSW,254,18.0,26.0,78,0.00,,,0.03,0.000000,,2013-10-11 05:43:00,